Weather Roundup
Issued by NWS Corpus Christi, TX

Home | Current Version | Previous Version | Text Only | Print | Product List | Glossary On
Versions: 1 2 3 4 5 6 7 8 9 10 11 12 13 14 15 16 17 18 19 20 21 22 23 24 25 26 27 28 29 30 31 32 33 34 35 36 37 38 39 40 41 42 43 44 45 46 47 48 49 50
691
ASUS44 KCRP 182010
HRRCRP

SOUTH TEXAS REGIONAL WEATHER ROUNDUP
NATIONAL WEATHER SERVICE CORPUS CHRISTI TX
200 PM CST WED JAN 18 2017


TXZ229>244-182100-
...CORPUS CHRISTI AREA OBSERVATIONS...

CITY           SKY/WX    TMP DP  RH WIND       PRES   REMARKS
CORPUS CHRISTI CLOUDY    60  55  83 NW10      30.02F
NAS CORPUS CHR CLOUDY    61  56  83 W12G25    30.00F
ROCKPORT       CLOUDY    61  54  77 NW8       30.00F
KINGSVILLE NAS CLOUDY    60  55  83 NW10      30.03F
ALICE          CLOUDY    59  53  80 NW9       30.01F
ORANGE GROVE   CLOUDY    59  55  87 N13       30.02F
FALFURRIAS     CLOUDY    61  54  78 NW9       30.02F
$$

...VICTORIA AREA OBSERVATIONS...

CITY           SKY/WX    TMP DP  RH WIND       PRES   REMARKS
VICTORIA       CLOUDY    58  54  86 N5        30.01F
BEEVILLE       CLOUDY    57  57 100 NW8       30.03F
PLEASANTON     CLOUDY    59  52  77 NW5       30.04F
SAN ANTONIO    PTSUNNY   62  52  69 VRB6      30.02F
$$

...LAREDO AREA OBSERVATIONS...

CITY           SKY/WX    TMP DP  RH WIND       PRES   REMARKS
LAREDO         PTSUNNY   64  49  57 NW10      30.03F
COTULLA        PTSUNNY   67  51  56 N8        30.02F
DEL RIO        CLOUDY    54  45  71 NW10      30.07F
MCALLEN        CLOUDY    65  55  70 NW9       30.01F
HEBBRONVILLE   CLOUDY    58  53  81 N10       30.03F
$$

...OTHER TEXAS OBSERVATIONS...

CITY           SKY/WX    TMP DP  RH WIND       PRES   REMARKS
BROWNSVILLE    CLOUDY    71  59  65 NW10      29.99F
HOUSTON        CLOUDY    66  63  90 NW12      29.97R
COL. STATION   CLOUDY    53  52  96 NW9       30.01F
AUSTIN         CLOUDY    56  51  84 NW8       30.03F
WACO           CLOUDY    50  49  96 NW15      30.06F
FORT WORTH     CLOUDY    51  50  96 NW9       30.03F
WICHITA FALLS  CLOUDY    49  46  90 CALM      30.06F
LUBBOCK        PTSUNNY   56  42  59 W14       30.00F
EL PASO        MOSUNNY   53  38  56 SW9       30.09F
$$

...MARINE OBSERVATIONS...

STATION/POSITION TIME  SKY/WX   TEMP    WIND        PRES    VSBY  WAVE   SWELL
                                AIR SEA DIR/SP/G                  HT/PER HT/PER
                 (UTC)          (F)     (DEG/KT/KT) (MB)    (MI)  (FT/S) (FT/S)
PORT ARANSAS     2000            59 64  290/  9/ 10 1015.8F
BUOY 90 E PORT A 1850            74 73  150/ 14/ 16 1015.7          4/ 6   3/ 8
BUOY 45 SE BAFFI 1850            62     310/ 16/ 17 1015.7          4/ 8   3/ 8
BUOY 200 E PT IS 1850            75 75  140/ 10/ 10 1016.7          4/ 8   3/ 8
BUOY 15 E GALVES 1850            69 66  170/ 10/ 10 1016.0          3/ 6   3/ 6
$$




USA.gov is the U.S. government's official web portal to all federal, state and local government web resources and services.